Location: Bullenkuhlen
(53.7689°N, 9.7495°E)
Time: 10:58:19
(UTC+00:00)

SL-8 Rocket - Pass Details

Date: 09 April 2020
Orbit: 957 x 990 km, 82.9° (Epoch: 25 May)

Event Time Altitude Azimuth Distance (km) Brightness Sun altitude
Rises 19:19:41 0° 350° (N) 3,709 7.7 -10.1°
Reaches altitude 10° 19:22:15 10° 353° (N) 2,760 6.9 -10.4°
Maximum altitude 19:28:33 65° 75° (ENE) 1,085 4.1 -11.2°
Drops below altitude 10° 19:34:50 10° 158° (SSE) 2,748 5.9 -12.0°
Enters shadow 19:35:13 - 158° (SSE) 2,891 6.0 -12.0°
